Naples, Italy

8:16 AM CET on March 24, 2017 (GMT +0100)
Naples

Weather History for LIRN - May, 2014

Change the Weather History Date:

Monday, May 26, 2014

  Actual Average Record
Temperature  
Mean Temperature 72 °F -  
Max Temperature 79 °F 78 °F 87 °F (2008)
Min Temperature 64 °F 59 °F 51 °F (2004)
Cooling Degree Days 8    
Growing Degree Days 22 (Base 50)    
Moisture  
Dew Point 58 °F    
Average Humidity 63    
Maximum Humidity 83    
Minimum Humidity 30    
Precipitation  
Precipitation 0.00 in 0.05 in - ()
Sea Level Pressure  
Sea Level Pressure 29.98 in    
Wind  
Wind Speed 5 mph ()    
Max Wind Speed 15 mph    
Max Gust Speed -    
Visibility 7.7 miles    
Events      
Averages and records for this station are not official NWS values.
T = Trace of Precipitation, MM = Missing Value Source: Averaged Metar Reports

Daily Weather History Graph

Daily Weather History Graph

Search for Another Location

Airport or City:

Trip Planner

Search our weather history database for the weather conditions in past years. The results will help you decide how hot, cold, wet, or windy it might be!

Date:

Astronomy

May. 26, 2014 Rise Set
Actual Time 5:36 AM CEST 8:23 PM CEST
Civil Twilight 5:04 AM CEST 8:55 PM CEST
Nautical Twilight 4:24 AM CEST 9:36 PM CEST
Astronomical Twilight 3:37 AM CEST 10:22 PM CEST
Moon 4:08 AM CEST (5/26) 6:07 PM CEST (5/26)
Length of Visible Light 15h 50m
Length of Day
14h 46m
Waning Crescent, 6% of the Moon is Illuminated
May 26
Waning Crescent
May 28
New
Jun 5
First Quarter
Jun 13
Full
Jun 19
Last Quarter

Hourly Weather History & Observations

Time (CEST) Temp. Dew Point Humidity Pressure Visibility Wind Dir Wind Speed Gust Speed Precip Events Conditions
12:20 AM 69.8 °F 59.0 °F 68% 29.98 in - NNE 3.5 mph - N/A   Clear
12:50 AM 68.0 °F 59.0 °F 73% 29.95 in - Variable 2.3 mph - N/A   Clear
1:20 AM 68.0 °F 59.0 °F 73% 29.95 in - NNE 2.3 mph - N/A   Clear
1:50 AM 68.0 °F 59.0 °F 73% 29.95 in - Variable 1.2 mph - N/A   Clear
2:00 AM 69 °F 60 °F 65% 29.96 in 16 mi South 1.2 mph - -  
2:20 AM 68.0 °F 59.0 °F 73% 29.95 in - West 2.3 mph - N/A   Clear
2:50 AM 68.0 °F 60.8 °F 78% 29.95 in - West 4.6 mph - N/A   Clear
3:20 AM 68.0 °F 62.6 °F 83% 29.95 in 6.2 mi West 3.5 mph - N/A   Partly Cloudy
3:50 AM 68.0 °F 62.6 °F 83% 29.95 in 6.2 mi West 3.5 mph - N/A   Partly Cloudy
4:20 AM 69.8 °F 60.8 °F 73% 29.95 in 6.2 mi WSW 4.6 mph - N/A   Partly Cloudy
4:50 AM 68.0 °F 60.8 °F 78% 29.95 in 6.2 mi Calm Calm - N/A   Partly Cloudy
5:00 AM 69 °F 62 °F 71% 29.95 in 16 mi Calm Calm - -   Scattered Clouds
5:20 AM 69.8 °F 60.8 °F 73% 29.95 in 6.2 mi NNW 2.3 mph - N/A   Mostly Cloudy
5:50 AM 68.0 °F 59.0 °F 73% 29.95 in 6.2 mi Variable 2.3 mph - N/A   Mostly Cloudy
6:20 AM 68.0 °F 59.0 °F 73% 29.95 in 6.2 mi Calm Calm - N/A   Mostly Cloudy
6:50 AM 69.8 °F 60.8 °F 73% 29.95 in 6.2 mi East 2.3 mph - N/A   Scattered Clouds
7:20 AM 69.8 °F 60.8 °F 73% 29.95 in 6.2 mi Calm Calm - N/A   Scattered Clouds
7:50 AM 71.6 °F 62.6 °F 73% 29.98 in 6.2 mi South 3.5 mph - N/A   Mostly Cloudy
8:00 AM 72 °F 63 °F 65% 29.97 in 14 mi South 4.6 mph - -   Mostly Cloudy
8:20 AM 71.6 °F 62.6 °F 73% 29.98 in 6.2 mi SSW 6.9 mph - N/A   Mostly Cloudy
8:50 AM 73.4 °F 62.6 °F 69% 29.98 in 6.2 mi SSW 8.1 mph - N/A   Mostly Cloudy
9:20 AM 73.4 °F 64.4 °F 73% 29.98 in 6.2 mi South 8.1 mph - N/A   Mostly Cloudy
9:50 AM 73.4 °F 64.4 °F 73% 29.98 in 6.2 mi SSW 9.2 mph - N/A   Scattered Clouds
10:20 AM 75.2 °F 62.6 °F 65% 29.98 in 6.2 mi South 9.2 mph - N/A   Scattered Clouds
10:50 AM 75.2 °F 62.6 °F 65% 29.98 in 6.2 mi South 6.9 mph - N/A   Mostly Cloudy
11:00 AM 76 °F 63 °F 55% 29.99 in 14 mi South 8.1 mph - -   Mostly Cloudy
11:20 AM 75.2 °F 62.6 °F 65% 29.98 in 6.2 mi South 9.2 mph - N/A   Mostly Cloudy
11:50 AM 77.0 °F 60.8 °F 57% 29.98 in 6.2 mi South 9.2 mph - N/A   Mostly Cloudy
12:20 PM 75.2 °F 60.8 °F 61% 29.98 in 6.2 mi South 6.9 mph - N/A   Mostly Cloudy
12:50 PM 75.2 °F 60.8 °F 61% 29.98 in 6.2 mi SW 6.9 mph - N/A   Scattered Clouds
1:20 PM 77.0 °F 59.0 °F 54% 29.98 in 6.2 mi West 10.4 mph - N/A   Scattered Clouds
1:50 PM 77.0 °F 55.4 °F 47% 29.98 in 6.2 mi West 11.5 mph - N/A   Scattered Clouds
2:00 PM 78 °F 52 °F 30% 29.99 in 25 mi West 10.4 mph - -   Partly Cloudy
2:20 PM 77.0 °F 48.2 °F 36% 29.98 in 6.2 mi West 11.5 mph - N/A   Partly Cloudy
2:50 PM 77.0 °F 50.0 °F 39% 29.98 in 6.2 mi WSW 12.7 mph - N/A   Partly Cloudy
3:20 PM 77.0 °F 48.2 °F 36% 29.98 in 6.2 mi West 12.7 mph - N/A   Partly Cloudy
3:50 PM 77.0 °F 55.4 °F 47% 29.98 in - West 15.0 mph - N/A   Clear
4:20 PM 77.0 °F 50.0 °F 39% 29.98 in - West 12.7 mph - N/A   Clear
4:50 PM 77.0 °F 50.0 °F 39% 29.98 in - West 13.8 mph - N/A   Clear
5:00 PM 77 °F 53 °F 33% 29.98 in 25 mi West 11.5 mph - -  
5:20 PM 75.2 °F 55.4 °F 50% 29.98 in - West 15.0 mph - N/A   Clear
5:50 PM 75.2 °F 51.8 °F 44% 29.98 in - West 12.7 mph - N/A   Clear
6:50 PM 73.4 °F 55.4 °F 53% 29.95 in - West 11.5 mph - N/A   Clear
7:50 PM 69.8 °F 55.4 °F 60% 29.98 in - WSW 10.4 mph - N/A   Clear
8:00 PM 71 °F 57 °F 52% 29.99 in 25 mi West 9.2 mph - -  
8:20 PM 69.8 °F 55.4 °F 60% 29.98 in - North - - N/A   Clear
8:50 PM 69.8 °F 59.0 °F 68% 29.98 in - Variable 3.5 mph - N/A   Clear
9:20 PM 68.0 °F 57.2 °F 68% 30.01 in - SW 8.1 mph - N/A   Clear
9:50 PM 68.0 °F 59.0 °F 73% 30.01 in - WSW 3.5 mph - N/A   Clear
10:20 PM 66.2 °F 59.0 °F 78% 30.01 in - West 5.8 mph - N/A   Clear
10:50 PM 68.0 °F 57.2 °F 68% 30.01 in - Variable 1.2 mph - N/A   Clear
11:00 PM 67 °F 57 °F 62% 30.02 in 16 mi Calm Calm - -  
11:20 PM 66.2 °F 57.2 °F 73% 30.01 in - West 4.6 mph - N/A   Clear
11:50 PM 64.4 °F 59.0 °F 83% 30.01 in - WSW 5.8 mph - N/A   Clear